Home > Weather > Newman > Past weeks

Flag for Australia Past Weather in Newman, Western Australia, Australia — Yesterday and Last 2 Weeks

Now
58 °F

Overcast.


Feels Like: 57 °F
Forecast: 53 / 78 °F
Wind: 6 mph from East

Location: Newman Aerodrome

Current Time: Jul 2, 2016 at 8:23:52 AM

Latest Report: Jul 2, 2016 at 6:00 AM


Visibility: N/A

Pressure: 30.17 "Hg (28.27 "Hg at 546m altitude)

Humidity: 87%

Dew Point: 54 °F

Location of NewmanLocation

Past Weather in Newman — Graph

°F

Newman Temperature Yesterday

Maximum temperature yesterday: 65 °F (at 3:00 PM)
Minimum temperature yesterday: 54 °F (at 12:00 AM)
Average temperature yesterday: 59 °F

High & Low Weather Summary for the Past Weeks

 TemperatureHumidityPressure
High81 °F (Jun 20, 3:00 PM)99% (Jun 26, 8:00 AM)30.21 "Hg (Jun 26, 8:00 AM)
Low39 °F (Jun 28, 6:00 AM)28% (Jun 19, 3:00 PM)29.85 "Hg (Jun 21, 5:00 AM)
Average60 °F70%30.04 "Hg
* Reported Jun 17 6:00 AM — Jul 2 6:00 AM, Newman, Weather by CustomWeather, © 2016

Note: Actual official high and low records may vary slightly from our data, if they occured in-between our weather recording intervals... More about our weather records

Advertising

Newman Weather History for the Previous 24 Hours

Scroll right to see more
 ConditionsComfort  
Time TempWeatherWind HumidityBarometerVisibility
6:00 AM
Sat, Jul 2
58 °FOvercast.6 mph87%30.17 "HgN/A
5:00 AM58 °FCool.9 mph86%30.16 "HgN/A
3:00 AM58 °FOvercast.8 mph86%30.17 "HgN/A
2:00 AM58 °FCool.9 mph85%30.19 "HgN/A
12:00 AM59 °FOvercast.6 mph85%30.20 "HgN/A
11:00 PM
Fri, Jul 1
59 °FCool.7 mph84%30.21 "HgN/A
9:00 PM60 °FOvercast.8 mph83%30.20 "HgN/A
8:00 PM60 °FCool.8 mph84%30.19 "HgN/A
6:00 PM62 °FOvercast.10 mph81%30.16 "HgN/A
5:00 PM63 °FMild.10 mph78%30.13 "HgN/A
3:00 PM65 °FOvercast.10 mph75%30.12 "HgN/A
2:00 PM64 °FMild.13 mph75%30.14 "HgN/A
12:00 PM63 °FOvercast.12 mph79%30.17 "HgN/A
11:00 AM61 °FCool.13 mph83%30.19 "HgN/A
9:00 AM58 °FLow clouds.9 mph91%30.21 "HgN/A
8:00 AM57 °FCool.8 mph92%30.20 "HgN/A
Weather by CustomWeather, © 2016

See weather overviewHow to use our weather pages